Regional Weather Roundup
Issued by NWS

Home | Current Version | Previous Version | Graphics & Text | Print | Product List | Glossary Off
Versions: 1 2 3 4 5 6 7 8 9 10 11 12 13 14 15 16 17 18 19 20 21 22 23 24 25 26 27 28 29 30 31 32 33 34 35 36 37 38 39 40 41 42 43 44 45 46 47 48 49 50

000
ASUS43 KTOP 050159
RWRKS

WEATHER ROUNDUP FOR KANSAS
NATIONAL WEATHER SERVICE GOODLAND KS
800 PM CST WED MAR 04 2015

NOTE:  "FAIR" INDICATES FEW OR NO CLOUDS BELOW 12,000 FEET WITH NO
SIGNIFICANT WEATHER AND/OR OBSTRUCTIONS TO VISIBILITY.

KSZ001>006-013>018-027>032-041>047-050300-
NORTHWEST KANSAS

CITY           SKY/WX    TMP DP  RH WIND       PRES   REMARKS
GOODLAND       CLEAR     19   9  65 CALM      30.26R
HAYS           CLEAR     21   1  42 NE6       30.33S
HILL CITY      CLEAR     17   2  51 NW5       30.32R
RUSSELL        CLEAR     22   2  42 N6        30.32S
$$

KSZ061>065-074>080-084>089-050300-
SOUTHWEST KANSAS

CITY           SKY/WX    TMP DP  RH WIND       PRES   REMARKS
DODGE CITY     MOCLDY    24   7  48 N6        30.31R
ELKHART          N/A     24   9  53 N5          N/A
GARDEN CITY    FAIR      22  10  60 N3        30.30R
GREAT BEND     PTCLDY    21   3  45 N7        30.34R
LIBERAL        MOCLDY    23  12  63 N6        30.31R
$$

KSZ066>073-081>083-090>101-050300-
SOUTHEAST KANSAS

CITY           SKY/WX    TMP DP  RH WIND       PRES   REMARKS
CHANUTE        CLOUDY    26   8  46 NE6       30.37R
COFFEYVILLE    CLOUDY    26   9  48 NE12      30.38S WCI  16
HUTCHINSON     MOCLDY    26   6  42 N5        30.35R
MEDICINE LODGE   N/A     25  10  53 NE5       30.35R
NEWTON         MOCLDY    21   7  53 NE7       30.35S
PARSONS        CLOUDY    27  11  51 NE3       30.39R
WICHITA INTL   CLOUDY    27   8  44 NE6       30.36R
WICHITA JABRA  CLOUDY    24  10  55 N5        30.36R
WINFIELD       CLOUDY    28  11  48 E5        30.37R
$$

KSZ007>012-019>026-033>040-048>060-102>105-050300-
NORTHEAST KANSAS

CITY           SKY/WX    TMP DP  RH WIND       PRES   REMARKS
CONCORDIA      CLEAR     24   5  44 CALM      30.36R
EMPORIA        CLOUDY    24   8  50 N6        30.34S
LAWRENCE       CLOUDY    26   9  48 CALM      30.38R
MANHATTAN      MOCLDY    26   8  46 N3        30.38R
OLATHE IND     CLOUDY    25  12  58 CALM      30.37R
OLATHE EXE     CLOUDY    27   6  41 CALM      30.36R
SALINA         MOCLDY    27   4  37 N7        30.36S
TOPEKA BILLARD CLOUDY    27   8  44 N7        30.37R
TOPEKA FORBES  CLOUDY    28   7  41 NW7       30.36R
$$



USA.gov is the U.S. government's official web portal to all federal, state and local government web resources and services.